Погода в Аккудуке

Погода в Аккудуке : погода сейчас, прогноз погоды и архив. Всё, что Вы хотите узнать о погоде в Аккудуке!

Хотите узнать прогноз погоды в Аккудуке? Тогда Вам сюда: Погода в Аккудуке

Поиск расширенной информации на нашем сайте:

Другие новости

Новости СМИ2

Главная страница сайта

Новости сайта

03.07.2017

Напоминаем, что на нашем специализированном сайте Метеоцентр.Азия вы можете получить высокодетализированные автоматические прогнозы погоды по пунктам России, СНГ и мира в авиационном формате (включающие направление и скорость ветра, видимость, явления погоды, количество и форму облачности, нижнюю и верхнюю границу облачности).

Рекомендуем: Кондиционеры Panasonic inverter

Погода в Аккудуке - сегодня

Время (UTC), дата Ветер
(°,м/с) 
Видим.   Явления Облачность Т
(°С)
Тd
(°С)
f(%) Тe
(°С)
Pmin
(гПа)
dP
(гПа)
Po
(мм)
O2
(г/м3)
Тmin Tmax R s Состояние
почвы
06 10.12.17 070 (В) 20000 м    9/9 600 м 
[Sc]
-4.7 -6.7 86 -4  1031.6  0.5  766  315  -9.8         
09 10.12.17 070 (В) 20000 м    8/8 1000 м 
[Sc]
-0.4 -2.9 83 -1  1030  -1.3  765  309           
12 10.12.17 090 (В) 20000 м    4/0 средняя, верхняя 
[Ac trans|Ci fib]
+1.9 -3 70 1028.2  -1.8  764  306           
15 10.12.17 110 (В) 20000 м    9/9 180 м 
[Sc]
-0.3 -2.5 85 1028.4  0.1  764  308          мокрая 
18 10.12.17 110 (В) 20000 м    9/9 600 м 
[Sc]
-0.9 -3.1 85 -2  1028.3  -0.1  764  309    +2.6       
21 10.12.17 100 (В) 20000 м    9/9 600 м 
[Sc]
-1.7 -3.6 87 -4  1027.9  -0.4  763  310           
00 11.12.17 090 (В) 20000 м    9/9 600 м 
[Sc]
-2.4 -4 89 -4  1027.5  -0.5  763  311           
03 11.12.17 070 (В) 20000 м    3/0 средняя 
[Ac trans]
-4.4 -6.1 88 -4  1027  -0.5  763  313           
06 11.12.17 130 (ЮВ) 20000 м    3/0 средняя 
[Ac lent]
-0.5 -5.7 68 -2  1028  1.1  763  309  -4.6         
09 11.12.17 120 (ЮВ) 20000 м    ясно 
+2.6 -4.4 60 +1  1027.3  -0.6  763  305           
12 11.12.17 100 (В) 20000 м    ясно 
+2 -6 55 1027  -0.3  763  306           
15 11.12.17 150 (ЮВ) 20000 м    ясно 
-2.7 -6.6 74 -5  1027.8  0.7  763  311    +2.6       
18 11.12.17 120 (ЮВ) 20000 м    ясно 
-4.5 -5.5 93 -4  1030.3  2.3  765  314    +2.6       
21 11.12.17 100 (В) 20000 м    ясно 
-5.6 -6.3 95 -7  1031.4  1.1  766  316           
00 12.12.17 010 (С) 20000 м    ясно 
-6.4 -7.2 94 -8  1032.1  0.7  766  317           
03 12.12.17 070 (В) 0500 м  туман  ?/?  
-7.4 -8.2 94 -7  1033.2  1.1  767  319           
06 12.12.17 110 (В) 0500 м  туман  ?/?  
-6.8 -97.6 0 -8  933.9  0.6  693  288  -10         
09 12.12.17 110 (В) 10 км    10/10 600 м 
[Sc]
-5.4 -6.9 89 -8  1033.4  -0.4  767  316           
12 12.12.17 120 (ЮВ) 20000 м    9/4 1000 м средняя 
[Sc|Ac cast]
-5.2 -6 94 -7  1032.5  -0.9  767  316           
15 12.12.17 100 (В) 20000 м    10/10 600 м 
[Sc]
-5.3 -6.5 91 -9  1033.3  0.7  767  316    -5       
18 12.12.17 120 (ЮВ) 20000 м    9/0 
[Sc]
-6.3 -7.8 89 -8  1033.6  0.2  767  317    -5       
21 12.12.17 110 (В) 20000 м    9/9 600 м 
[Sc]
-6.8 -8 91 -8  1033.7  0.1  767  318           
00 13.12.17 100 (В) 20000 м    9/9 600 м 
[Sc]
-7.4 -8.3 93 -9  1033.7  767  319           
03 13.12.17 050 (СВ) 20000 м    9/0 средняя 
[Sc|As trans]
-9.7 -10.6 93 -10  1033.7  -0.3  767  322           
06 13.12.17 090 (В) 20000 м    10/10 600 м 
[Sc]
-5.7 -7.5 87 -9  1034.3  0.9  768  317  -9.8         
Время (UTC), дата Ветер
(°,м/с) 
Видим.   Явления Облачность Т
(°С)
Тd
(°С)
f(%) Тe
(°С)
Pmin
(гПа)
dP
(гПа)
Po
(мм)
O2
(г/м3)
Тmin Tmax R s Состояние
почвы

Для получения пояснительной информации подведите курсор к названию столбца.

ПОГОДА в Аккудуке - архив

Всё, что Вы хотите узнать о погоде в Аккудуке - удобно и подробно!

Выберите нужную дату (начиная с 1 января 2015* года) и нажмите кнопку "Найти".
Будут отображены архивные сводки погоды по пункту Аккудук, начиная с указанной даты.


Отображать данные в формате CSV (для использования в таблицах Excel)


Внимание! Наш архив погоды предназначен исключительно для личного некоммерческого использования в познавательных целях. Если Вам необходимы официальные справки о состоянии погоды (для производственных, юридических, коммерческих и т.п. целей), обращайтесь в органы Росгидромета.

*Примечание: данная дата относится к архиву по метеостанциям СССР (Россия, СНГ, Балтия).
Архив по метеостанциям Зарубежной Европы и Азии (кроме Китая) хранится 10 дней, по другим регионам земного шара (Китай, Африка, Америка, Австралия, Океания) - 1 день.

Аккудук - район местоположения метеостанции


Название, широта, долгота, высота метеостанции:
Аккудук 42.1°ш. 54.1°д. 78 м над ур. моря [Казахстан]

Дополнительная информация

В oтличие oт бoльшинства пoгoдных сайтoв мы публикуем пoдрoбную метеoинфoрмацию в детальнoм прoфессиoнальнoм фoрмате.

Характеристики температуры и влажнoсти вoздуха измеряются на высoте 2 м в тени вдали oт зданий и деревьев.
Скoрoсть ветра измеряется на высoте 10 м (на урoвне рoста челoвека скoрoсть ветра ниже в 1.5-2 раза). Если метеoстанция нахoдится в гoрoде или в лесу, тo скoрoсть ветра занижена на 2-4 м/с пo сравнению с oткрытым местoм. Скoрoсть ветра над акватoриями крупных рек и oзёр, а также на вершинах хoлмoв на 2-5 м/с выше, чем в oбычных услoвиях.
Атмoсфернoе давление в разных тoчках местнoсти мoжет значительнo oтличаться oт давления на метеoстанции, в зависимoсти oт услoвий рельефа (при пoдъёме на 10 м давление пoнижается примернo на 1 мм рт.ст.).